Temp
15 15 15 15 15 15 15 15 15 15 15 15 15 15 15 15 15 14 14 14 14 14 14 14 14 14 14 14 14 14 15 14 14 15 15 15 15 15 15 15 15 15 15 15 15 15 15 14 14 14 14 14 13 13 13 13 13 13 12 12 12 12 12 12 12 12 12 12 11
15 15 15 15 15 15 15 15 15 15 15 15 15 15 15 15 15 15 14 14 14 14 14 14 14 14 14 14 14 14 14 14 14 14 15 15 15 15 15 15 15 15 15 15 15 15 14 14 14 14 13 13 13 13 13 13 12 12 12 12 12 12 12 12 12 12 12 11 11
16 15 15 15 15 15 15 15 15 15 15 15 15 15 15 15 15 15 15 15 14 14 14 14 14 14 14 14 14 14 14 14 14 14 15 15 15 15 15 15 15 15 15 15 15 15 14 14 14 14 13 13 13 13 12 12 12 12 12 12 12 12 12 12 12 12 11 11 11
16 16 15 16 15 15 15 15 15 15 15 15 15 15 15 15 15 15 15 15 15 14 14 14 14 14 14 14 14 14 15 15 15 15 15 15 15 15 15 15 15 15 14 14 14 14 14 14 14 13 13 13 13 13 12 12 12 12 12 12 12 11 11 11 11 11 11 11 11
16 16 16 16 16 16 16 15 15 15 15 15 15 15 15 15 15 15 15 15 15 15 15 15 14 14 14 14 14 15 15 15 15 15 15 15 15 15 15 14 14 14 14 14 14 14 14 14 13 13 13 13 13 12 12 12 12 12 11 11 11 11 11 11 11 11 11 10 10
16 16 16 16 16 16 16 16 15 15 15 15 15 15 15 15 15 15 15 15 15 15 15 15 14 14 14 14 14 15 15 15 15 15 14 14 14 14 14 14 14 14 14 14 14 14 14 13 13 12 12 12 12 12 12 12 12 12 11 11 11 11 11 11 11 10 10 10 10
16 16 16 16 16 16 16 16 16 15 15 15 15 15 15 15 15 15 15 15 15 15 15 15 14 14 14 14 14 14 14 14 14 14 14 14 14 14 14 14 14 14 14 14 14 13 13 13 12 12 12 12 12 13 12 12 12 12 11 11 11 11 11 11 10 10 10 10 10
16 16 16 16 16 16 16 16 16 15 15 15 15 15 15 15 15 15 15 15 15 15 15 14 14 14 14 14 14 14 14 14 14 14 13 13 13 13 13 13 13 13 13 13 13 13 13 12 12 12 12 12 12 12 12 12 12 12 11 11 11 11 11 11 10 10 10 10 10
16 16 16 16 16 16 16 16 16 16 15 15 15 15 15 15 15 15 15 15 15 15 15 14 14 14 14 14 14 14 14 14 13 13 13 13 13 13 13 13 13 13 13 12 12 12 12 12 12 12 12 12 12 12 12 12 12 12 11 11 11 10 10 10 10 10 10 10 10
16 16 16 16 16 16 16 16 16 16 16 15 15 15 15 15 15 15 15 15 15 15 15 14 14 14 14 14 14 14 14 13 13 13 13 13 12 12 12 12 12 12 12 12 12 12 12 12 12 12 11 12 12 12 12 12 12 11 11 11 10 10 9 9 10 10 10 10 9
16 16 16 16 16 16 16 16 16 16 16 15 15 15 15 15 15 15 15 15 15 15 15 15 14 14 14 14 14 14 13 13 13 13 13 12 12 12 12 12 12 12 12 11 11 11 12 12 11 11 11 11 11 12 12 12 11 11 11 11 10 9 9 9 10 10 10 10 9
16 16 16 16 16 16 16 16 16 16 16 15 15 15 15 15 15 15 15 15 15 15 15 15 14 14 14 14 14 14 13 13 13 13 12 12 12 12 12 12 12 12 12 11 11 11 11 11 11 11 11 11 11 11 11 11 11 11 11 10 9 9 8 8 9 10 10 9 9
17 17 16 16 16 16 16 16 16 16 16 15 15 15 15 15 15 15 15 15 15 15 15 14 14 14 14 14 14 13 13 13 13 13 12 12 12 12 12 12 11 11 11 11 11 11 11 11 11 11 11 11 11 11 11 11 11 11 10 10 9 8 8 8 9 9 10 9 9
17 17 17 17 17 16 16 16 16 16 16 16 15 15 15 15 15 15 15 15 15 15 15 14 14 14 14 14 14 13 13 13 13 13 12 12 12 12 12 11 11 11 11 11 11 11 11 11 11 11 11 11 11 11 11 11 11 11 10 9 9 8 8 8 9 9 9 9 9
17 17 17 17 17 17 16 16 16 16 16 16 16 15 15 15 15 15 15 15 15 15 15 14 14 14 14 14 14 13 13 13 13 13 12 12 12 12 12 12 11 11 11 11 11 11 11 11 11 11 11 11 11 11 11 11 11 10 10 10 9 8 8 8 9 9 9 9 9
17 17 17 17 17 17 17 16 16 16 16 16 16 16 15 15 15 15 15 15 15 15 14 14 14 14 14 14 13 13 13 13 13 13 12 12 12 12 12 12 11 11 11 11 11 11 11 11 11 11 11 11 11 11 11 11 11 10 10 10 9 8 8 8 9 9 9 9 9
17 17 17 17 17 17 17 17 17 16 16 16 16 16 16 15 15 15 15 15 15 14 14 14 14 14 13 13 13 13 13 13 13 12 12 12 12 12 12 12 11 11 11 11 11 10 10 10 11 11 11 11 11 11 11 11 10 10 10 10 9 9 8 9 9 9 9 9 8
17 17 17 17 17 17 17 17 17 17 17 17 16 16 16 16 15 15 15 15 15 14 14 14 14 14 13 13 13 13 13 13 13 13 12 12 12 12 12 12 11 11 11 10 10 10 10 10 10 11 11 11 11 11 11 11 10 10 10 10 9 9 9 9 9 9 9 8 8
17 18 18 17 17 17 17 17 17 17 17 17 17 16 16 16 16 15 15 15 15 15 14 14 14 14 13 13 13 13 13 13 13 13 12 12 12 12 12 12 11 11 11 10 10 10 10 10 11 11 11 11 11 11 10 10 10 9 9 9 9 9 8 9 9 8 8 8 7
18 18 18 18 18 18 18 17 17 17 17 17 17 17 16 16 16 15 15 15 15 15 15 14 14 14 13 13 13 13 13 13 13 13 12 12 12 12 12 12 11 11 11 11 10 10 10 10 11 11 11 11 11 10 10 9 9 9 9 9 8 8 8 8 8 8 8 7 7
18 18 18 18 18 18 18 18 18 17 17 17 17 17 17 16 16 16 15 15 15 15 15 14 14 14 14 13 13 13 13 13 13 12 12 12 12 12 12 12 11 11 11 11 10 10 10 10 11 11 11 11 10 9 9 8 8 8 8 8 8 8 8 8 8 8 7 7 7
18 18 18 18 18 18 18 18 18 18 17 17 17 17 17 17 16 16 16 16 15 15 15 15 15 14 14 14 13 13 13 13 13 12 12 12 12 12 12 12 11 11 11 10 10 10 10 10 11 11 11 10 10 9 8 8 8 8 8 8 8 8 8 8 8 7 7 7 7
19 18 18 18 18 18 18 18 18 18 18 17 17 17 17 17 17 16 16 16 15 15 15 15 15 14 14 14 14 13 13 13 13 12 12 12 12 12 12 11 11 11 11 10 10 10 10 10 10 10 10 10 9 8 7 7 7 8 8 8 8 8 8 8 7 7 7 7 7
19 19 19 18 18 18 18 18 18 18 18 18 17 17 17 17 17 16 16 16 15 15 15 15 14 14 14 14 14 13 13 13 13 12 12 12 12 12 12 11 11 11 11 10 10 10 10 10 10 10 10 10 9 8 7 7 7 8 8 7 7 8 8 8 7 7 7 7 7
19 19 19 19 18 18 18 18 18 18 18 18 18 17 17 17 17 16 16 16 15 15 15 15 14 14 14 14 14 13 13 13 13 12 12 12 12 12 11 11 11 11 10 10 10 10 10 10 10 10 10 9 8 7 7 7 7 8 7 7 7 8 8 8 7 7 7 7 7
19 19 19 19 19 19 18 18 18 18 18 18 18 18 17 17 17 17 16 16 15 15 15 15 14 14 14 14 13 13 13 13 13 12 12 12 12 11 11 11 11 10 10 10 10 10 11 11 11 10 9 8 8 7 7 7 7 7 7 7 7 8 8 7 7 7 7 7 7
19 19 19 19 19 19 19 19 18 18 18 18 18 18 17 17 17 17 16 16 15 15 15 15 14 14 14 14 13 13 13 13 12 12 12 12 11 11 11 11 10 10 10 10 10 10 11 11 11 10 9 8 7 7 7 7 7 7 7 7 7 7 7 7 7 7 7 7 6
19 19 19 19 19 19 19 19 18 18 18 18 18 18 17 17 16 16 16 15 15 15 15 15 14 14 14 14 13 13 13 13 12 12 11 11 11 10 10 10 10 10 10 10 10 10 11 11 10 10 9 8 8 7 7 7 6 6 7 7 7 7 7 7 7 7 7 6 6
19 19 19 19 19 18 18 18 18 18 18 18 18 17 17 16 15 15 15 15 15 14 14 14 14 14 13 13 13 13 13 12 12 12 11 10 9 9 9 9 9 10 10 10 10 10 10 10 10 9 9 8 8 7 7 7 7 7 7 7 7 7 7 7 7 7 6 6 6
18 19 18 18 18 18 18 18 18 17 17 17 17 16 15 15 14 14 14 14 14 14 13 13 13 13 13 13 13 12 12 12 11 11 11 10 9 9 9 9 9 10 10 10 10 10 10 9 9 9 8 8 8 7 7 7 7 7 7 7 7 7 7 7 7 6 6 6 6
18 18 18 18 18 18 17 17 17 16 16 15 14 14 13 13 13 13 13 13 13 13 13 12 12 12 12 12 12 12 12 11 11 11 11 10 10 9 9 9 9 10 10 10 11 10 10 9 9 8 8 8 8 7 7 7 7 7 7 7 7 7 7 7 6 6 6 6 6
18 17 18 18 17 17 17 16 16 15 14 14 13 13 12 12 12 12 12 12 12 11 11 11 11 11 12 12 12 12 11 11 10 10 11 10 10 9 9 9 9 10 10 10 10 10 9 9 9 8 8 8 7 7 7 7 7 7 7 7 7 7 7 6 6 6 6 6 7
17 17 17 17 17 17 16 15 14 14 14 13 13 13 12 12 11 11 11 10 10 10 10 9 10 10 11 11 11 11 11 10 10 10 10 9 9 8 8 9 10 10 10 10 10 9 9 9 9 8 8 7 7 7 7 6 6 6 7 7 7 7 6 6 6 6 6 7 7
17 16 16 17 17 16 15 14 14 13 13 13 13 12 12 11 10 10 10 10 10 10 9 9 9 10 11 11 11 11 11 10 10 9 9 8 8 8 8 9 10 10 10 10 9 9 9 9 8 8 7 7 7 6 6 6 6 6 7 7 7 6 6 6 6 6 6 7 7
16 16 16 16 16 15 14 13 13 13 13 12 12 11 11 10 10 10 10 10 10 10 10 9 9 10 11 11 11 11 11 10 10 9 8 8 8 8 9 10 10 10 9 9 9 8 8 8 8 8 7 7 6 6 6 6 6 7 7 6 6 6 6 6 6 6 6 6 6
15 16 15 15 15 14 13 13 13 12 12 12 11 10 10 10 10 10 11 11 11 11 10 9 10 10 11 11 10 10 10 10 10 9 8 8 8 9 9 10 10 9 8 8 8 8 8 8 7 7 7 6 6 6 6 6 6 6 6 6 6 6 6 6 6 6 6 5 5
15 15 15 15 14 13 13 12 12 12 11 11 10 10 10 10 11 11 12 12 12 11 10 9 10 11 11 10 10 10 10 10 9 9 8 8 9 9 9 9 9 8 7 7 7 7 7 7 7 6 6 6 6 6 6 6 6 6 6 6 6 6 6 6 5 5 5 4 4
15 15 15 15 14 13 12 12 11 11 11 10 10 10 11 11 11 12 12 11 10 9 9 10 11 11 11 10 10 10 10 9 9 9 8 9 9 9 9 8 7 6 6 6 6 6 6 6 6 6 6 6 6 6 6 6 6 6 6 6 5 5 5 5 4 4 4 4 5
14 14 14 14 13 12 11 11 11 11 11 11 11 11 11 11 11 11 11 10 10 10 10 10 11 11 11 10 10 10 9 9 9 9 9 9 8 8 8 7 6 5 5 5 6 6 6 6 6 6 6 6 6 6 6 6 6 5 5 5 5 4 4 4 4 4 4 5 5
13 13 13 13 12 12 11 11 11 11 11 11 11 11 11 11 11 10 10 10 10 10 10 10 10 11 11 10 10 9 9 8 8 8 8 8 7 7 6 6 6 5 5 5 6 6 6 6 6 6 6 6 6 6 6 5 5 5 4 4 4 4 4 4 4 4 5 4 4
12 12 12 12 12 11 11 11 11 11 11 11 11 11 11 11 10 10 10 10 10 10 10 10 10 10 10 10 10 9 8 8 7 7 7 6 6 6 6 6 6 6 5 6 6 6 6 6 6 6 6 6 5 5 5 5 4 4 4 4 4 4 4 4 4 4 4 3 2
Height
783 784 785 786 787 788 789 789 790 791 792 792 793 794 795 795 796 797 798 798 799 800 800 801 802 803 805 805 806 807 808 809 810 811 812 813 813 814 815 817 818 819 820 820 821 822 823 824 824 825 826 827 827 828 829 830 831 832 833 833 834 835 836 837 837 838 839 839 840
782 782 783 785 786 787 788 789 790 790 791 791 792 792 793 794 795 796 796 797 798 799 800 801 802 803 804 804 805 806 807 808 809 810 811 812 813 814 815 816 817 818 818 819 820 821 822 822 823 824 825 826 827 828 829 830 831 832 833 833 834 835 835 836 837 838 838 839 839
780 782 783 784 785 786 787 787 788 789 790 790 791 792 792 793 794 795 795 796 797 798 799 800 801 802 802 803 804 805 806 807 808 809 810 811 812 813 814 815 816 817 817 818 819 820 820 821 822 823 824 826 827 828 830 831 832 832 833 833 834 835 835 835 835 836 837 838 839
779 780 782 782 783 784 784 785 786 787 788 789 790 791 792 792 793 793 794 795 796 797 798 798 799 800 801 802 803 804 805 806 807 808 809 810 810 811 812 813 815 815 816 817 818 819 820 820 822 823 824 826 827 829 830 831 832 833 833 834 834 835 835 836 835 835 836 837 837
778 779 780 780 781 782 783 784 785 786 787 788 789 790 791 791 792 792 793 794 795 795 795 796 797 798 799 800 801 802 803 805 805 806 807 808 809 810 811 812 813 814 815 816 817 818 819 820 822 823 825 826 828 830 831 832 833 833 833 834 834 835 835 836 836 836 836 836 837
776 777 778 779 780 781 782 783 784 785 786 787 788 789 789 790 790 791 791 792 792 793 794 795 796 797 798 799 800 801 802 803 804 805 805 806 807 808 810 811 812 813 814 815 816 817 818 820 822 823 825 826 827 829 830 831 832 832 832 833 833 834 835 836 836 836 836 836 836
775 776 777 778 779 780 781 782 783 784 785 786 786 786 787 787 788 788 789 789 790 791 793 794 795 795 796 797 798 799 800 801 802 803 804 805 806 807 808 809 810 811 812 813 814 816 817 819 821 823 824 825 825 826 827 828 829 830 830 831 832 833 834 835 836 836 836 836 836
774 775 776 777 778 779 780 781 782 783 783 784 784 784 784 785 786 786 787 788 789 790 791 792 793 793 794 795 796 797 798 799 800 801 802 803 805 806 807 808 809 810 811 812 813 814 816 819 820 821 822 822 823 823 824 825 826 827 827 828 830 831 832 833 834 835 835 835 835
773 774 775 776 777 778 779 780 780 781 781 781 781 782 782 783 784 785 786 787 787 788 789 790 791 792 792 793 794 795 796 797 798 800 801 802 803 805 805 807 808 809 810 811 812 814 816 818 819 820 820 821 821 822 822 824 825 825 826 827 829 830 832 832 833 833 834 834 834
771 772 774 775 775 776 777 778 779 779 779 780 780 780 781 782 783 784 784 785 786 787 788 788 789 790 791 792 792 793 794 796 797 798 799 801 802 803 804 805 806 808 809 810 812 814 816 817 818 818 819 820 820 821 822 823 824 825 826 827 829 830 832 832 832 832 832 833 834
769 770 772 772 773 775 776 777 777 778 778 778 778 779 780 781 782 782 783 784 785 786 786 786 787 788 789 790 791 792 793 794 795 797 798 799 800 802 803 804 805 806 808 809 811 812 814 815 816 817 817 818 820 820 821 822 823 824 825 827 828 830 831 832 832 832 832 832 833
767 769 770 771 772 773 774 775 775 776 776 777 777 778 778 779 780 781 782 783 783 784 784 785 786 787 787 788 789 790 791 793 794 795 797 798 799 800 801 802 803 805 806 808 809 810 812 813 814 814 815 816 817 818 819 820 822 823 824 825 827 829 830 831 832 831 831 832 832
766 767 768 769 770 771 772 773 773 774 774 775 775 776 776 777 778 779 780 781 781 781 782 783 784 785 786 786 787 789 790 791 792 794 795 796 797 798 800 801 802 803 804 806 807 808 809 810 811 812 812 813 814 815 817 818 820 821 822 823 825 827 828 830 830 830 830 830 831
765 765 766 767 768 770 770 771 771 772 772 772 773 774 775 775 776 777 778 779 779 780 781 782 783 783 784 785 786 787 788 789 791 792 793 794 795 797 798 799 800 801 802 804 805 805 806 807 808 809 810 811 812 814 815 817 817 818 819 821 822 824 826 827 828 828 828 828 829
763 764 764 765 766 767 768 768 769 770 770 770 771 772 773 774 774 775 776 777 777 778 779 780 781 782 782 783 784 785 786 787 789 790 791 792 793 794 796 797 798 799 800 801 802 803 804 804 805 806 807 809 810 812 813 815 816 816 817 818 820 822 824 825 826 826 826 826 827
761 761 762 763 764 765 765 766 766 767 767 768 768 769 771 772 772 773 774 775 776 777 778 779 779 780 781 782 783 784 785 786 787 788 789 790 791 792 793 794 795 796 797 799 800 801 801 802 803 804 806 807 809 810 812 813 814 815 815 816 817 819 821 823 823 823 824 824 825
758 759 760 761 762 762 763 763 764 764 765 765 766 767 768 769 770 771 772 773 774 775 776 777 777 778 779 780 781 782 783 784 785 786 787 788 789 790 791 792 793 794 795 797 798 799 800 801 802 803 804 806 807 809 810 811 812 813 813 814 815 817 819 820 821 821 822 822 823
756 757 757 758 759 759 760 760 761 761 761 762 763 765 766 767 768 769 770 770 772 773 774 774 775 776 777 778 779 780 781 782 783 784 785 785 787 788 789 790 791 792 794 795 796 797 798 800 801 802 803 804 806 807 808 809 810 811 812 813 814 815 817 818 818 819 820 821 822
753 754 755 756 756 757 757 757 758 758 759 760 761 762 764 765 766 767 767 768 769 770 771 772 774 775 775 776 777 778 779 780 781 781 782 784 785 786 787 788 790 791 792 793 794 795 796 797 799 800 802 803 804 805 806 807 808 810 811 812 813 814 815 815 816 817 819 820 821
751 752 752 753 754 754 755 755 755 756 757 758 760 761 762 762 763 764 765 766 767 768 769 770 771 772 773 774 775 776 777 778 779 780 781 782 783 784 785 786 788 789 790 791 792 793 794 795 796 798 799 800 802 803 804 805 806 808 809 810 810 811 812 813 815 816 818 819 820
748 749 750 750 751 752 752 753 753 754 755 757 758 759 759 760 761 762 762 763 764 766 767 768 769 770 771 772 773 774 775 776 777 778 779 780 781 782 783 785 786 787 788 789 790 791 792 793 794 796 797 799 800 802 803 804 805 806 807 808 808 809 810 811 813 815 817 818 818
745 746 747 748 749 750 750 751 752 753 754 755 756 756 757 758 758 759 759 761 762 764 765 765 766 768 769 770 771 772 773 775 776 777 778 778 779 780 781 783 785 786 787 788 789 790 791 792 793 795 796 797 799 800 801 803 804 805 806 806 807 808 809 810 812 814 815 816 816
742 744 745 746 747 748 749 750 751 752 753 753 754 754 755 755 756 757 758 759 761 762 762 763 764 766 767 768 769 771 772 773 774 775 776 777 778 779 780 781 782 783 785 786 788 790 792 793 793 794 795 796 797 798 799 801 802 803 804 805 805 806 808 809 811 812 813 814 815
740 742 743 744 745 746 747 748 750 750 751 751 751 752 753 753 754 755 757 758 759 760 760 762 763 764 766 767 768 769 770 771 772 773 775 776 777 777 778 779 780 780 781 782 784 787 790 792 793 794 794 795 795 796 797 799 800 801 802 802 803 805 806 808 810 811 812 812 813
739 740 742 743 744 745 746 747 748 748 748 749 749 750 751 752 753 754 755 756 757 758 759 760 761 763 764 765 767 767 768 769 770 771 773 775 776 777 777 777 778 778 779 780 782 783 786 788 791 792 793 794 795 795 796 797 799 799 800 800 801 803 804 806 807 809 810 810 811
739 740 741 742 743 744 745 745 746 746 746 747 748 748 749 750 751 752 753 753 754 755 756 758 759 761 762 763 765 766 767 768 769 770 772 774 775 776 777 776 777 777 778 779 780 782 783 785 787 790 791 792 793 794 795 796 797 798 799 800 800 802 803 804 805 807 808 809 809
738 739 740 741 742 742 743 743 744 744 745 745 746 746 747 748 750 751 751 751 751 752 753 755 756 758 759 761 762 764 765 767 768 770 772 774 776 778 778 778 777 777 777 778 779 780 782 784 785 787 788 789 791 792 793 795 796 797 798 799 800 801 802 803 804 805 806 807 808
737 738 739 740 740 740 741 741 742 742 742 743 743 744 745 748 750 751 750 749 749 750 751 752 754 755 757 759 760 762 764 765 767 770 772 775 777 779 780 781 780 779 778 777 779 780 781 783 784 785 786 787 788 790 791 793 794 796 797 798 799 800 801 802 803 804 805 806 807
736 737 737 738 738 739 739 740 740 740 741 741 742 742 744 747 749 751 751 750 750 749 750 750 752 754 756 758 759 761 762 764 765 767 770 773 775 778 780 781 781 780 779 778 779 780 781 782 783 783 784 785 787 788 790 791 792 794 795 796 797 798 800 801 802 803 804 805 805
735 735 736 736 737 737 738 738 739 740 741 742 742 743 745 746 748 750 752 752 751 751 751 752 753 755 756 757 758 760 761 762 763 764 767 771 773 775 777 779 779 778 777 778 778 779 780 781 782 782 783 784 785 787 788 790 791 792 793 795 796 797 798 800 801 802 802 803 804
733 733 734 735 735 736 737 737 739 740 741 742 743 744 746 748 749 750 752 752 753 754 755 757 758 757 757 757 758 759 759 760 761 763 765 768 770 772 774 776 776 776 776 776 777 778 779 780 781 781 782 783 785 786 787 788 790 791 792 794 795 796 797 798 799 800 801 802 802
729 731 732 733 733 734 735 737 738 739 741 741 742 744 746 748 749 750 752 753 754 755 756 759 760 759 758 757 757 758 758 760 760 762 764 767 770 772 774 775 775 774 775 775 776 777 778 779 780 780 781 782 784 785 786 788 789 791 792 793 795 796 797 797 798 799 800 801 801
725 727 729 730 731 733 734 735 736 737 739 740 741 743 745 747 749 750 752 753 754 756 758 760 761 761 760 758 758 758 759 759 760 762 764 766 769 771 773 774 774 773 774 774 775 776 777 778 779 780 781 782 783 785 786 788 789 791 792 793 794 795 796 797 797 798 799 799 800
721 723 725 727 729 731 732 733 734 735 736 738 740 742 745 747 748 750 752 754 757 760 762 763 763 762 761 760 759 759 759 760 761 762 765 767 769 771 772 773 773 773 773 773 774 775 776 777 779 780 780 782 783 784 786 787 789 790 791 792 793 794 795 795 796 797 797 798 798
718 720 722 724 726 728 729 730 731 733 734 736 739 741 744 746 748 751 753 756 759 762 764 764 763 761 760 759 758 758 758 759 761 763 765 768 770 771 772 772 772 772 772 773 774 775 776 777 778 779 780 781 783 784 786 787 788 789 790 791 792 792 793 794 794 795 795 795 795
716 718 720 722 723 725 727 728 730 730 732 735 738 741 744 746 748 751 753 756 758 760 760 760 760 759 758 757 757 757 757 758 760 763 765 768 770 771 771 771 771 771 771 772 773 774 775 776 777 779 780 781 782 784 785 786 787 788 789 790 790 791 792 792 792 792 793 793 793
715 717 718 720 722 724 725 726 727 728 730 733 737 740 743 745 747 749 751 753 754 755 755 756 757 756 755 755 756 756 757 758 760 763 765 767 768 769 769 769 769 770 771 772 773 774 775 776 777 779 780 781 782 783 784 785 786 786 787 788 789 789 790 790 790 791 791 791 791
714 715 717 719 721 722 724 725 725 726 727 731 735 739 741 743 745 746 748 748 749 751 753 754 755 754 754 754 755 756 757 759 760 762 764 766 766 767 767 767 768 770 771 772 773 774 775 777 778 779 780 781 781 782 783 783 784 785 785 786 787 787 788 789 789 789 790 790 789
714 715 716 718 720 722 723 724 725 725 727 730 734 737 739 741 742 744 744 745 747 750 752 753 753 753 753 754 755 756 757 759 761 762 763 765 765 766 766 767 768 770 771 772 773 774 775 776 777 778 779 779 780 781 781 782 782 783 784 784 785 786 787 787 787 788 787 787 787
714 715 716 718 720 722 724 726 727 728 730 732 735 737 739 740 742 744 744 746 747 749 750 751 752 752 752 754 755 756 757 759 761 762 763 764 765 765 766 767 768 769 770 771 772 773 774 775 776 777 777 777 778 779 780 780 781 782 782 783 784 785 785 785 785 785 785 785 786
714 716 717 719 721 723 725 727 729 731 733 735 736 738 740 741 743 744 745 745 747 748 749 750 750 751 752 753 755 756 758 759 761 762 763 764 765 766 766 767 768 768 769 770 771 772 773 774 774 775 775 776 776 777 778 779 780 780 781 782 783 783 783 783 784 784 784 785 785
Wind_Speed
30 30 30 30 30 29 29 28 27 28 28 28 28 29 29 29 29 30 30 31 31 31 31 32 33 34 34 34 36 37 38 36 36 36 36 35 35 34 33 32 32 32 32 32 32 32 31 30 30 29 28 28 28 27 27 26 26 25 25 24 24 23 22 21 21 21 21 20 19
30 31 31 30 30 29 28 28 27 28 28 29 29 30 30 30 30 30 31 31 31 31 31 30 32 32 33 34 35 36 37 36 36 35 35 35 34 34 33 32 32 33 33 33 33 33 32 31 30 29 29 28 28 27 27 26 26 25 25 24 24 23 22 22 22 21 21 20 19
31 31 31 31 30 29 28 27 28 29 29 29 29 29 30 30 30 30 31 32 31 31 30 30 31 32 34 34 35 36 36 36 36 36 35 35 34 34 33 33 33 33 34 34 35 34 33 32 31 30 30 29 28 28 27 26 25 25 24 24 23 23 23 23 22 22 21 20 19
32 32 32 32 32 31 30 29 29 30 30 30 29 29 29 30 30 30 31 31 31 31 31 31 32 33 34 35 36 36 37 37 37 36 36 35 35 35 34 34 34 34 35 35 35 35 34 33 32 31 30 29 28 27 26 25 24 24 23 23 22 22 22 22 22 21 21 20 19
32 33 33 33 34 33 32 30 30 31 31 30 29 29 29 30 30 30 30 31 32 33 33 33 32 33 34 35 36 37 37 37 37 37 37 36 36 36 35 35 35 35 35 36 36 35 34 33 32 31 30 29 27 26 25 24 24 23 22 22 21 21 21 21 20 20 19 19 18
33 34 34 33 34 34 32 31 30 31 31 30 30 30 30 30 30 31 31 32 33 35 35 34 33 33 34 35 36 37 38 38 38 38 37 37 37 36 36 36 35 35 36 36 36 35 34 33 31 30 30 29 27 26 25 24 24 23 22 21 20 20 19 19 19 19 18 18 18
33 34 33 33 33 33 32 31 30 31 31 31 31 32 32 32 32 32 33 33 34 34 34 34 33 33 34 35 36 37 38 38 38 38 38 37 37 36 36 36 36 36 36 36 36 36 34 32 31 30 30 29 28 27 26 26 25 24 23 22 21 20 19 19 19 19 18 18 18
32 33 33 33 33 33 33 32 31 31 31 32 33 34 35 34 34 34 34 33 33 33 34 34 34 34 34 35 36 37 37 37 38 37 37 37 36 36 35 36 36 36 36 36 36 35 34 31 30 30 30 30 30 29 28 28 27 26 25 23 21 20 20 20 20 20 20 19 19
31 32 33 33 33 33 34 33 32 31 32 33 34 35 36 35 34 34 33 33 33 33 33 34 35 35 35 35 35 36 36 37 37 37 37 36 35 35 35 35 35 36 35 35 34 33 32 31 30 30 30 30 30 30 29 29 28 27 25 23 21 21 21 22 23 22 21 21 20
31 32 32 33 33 34 34 33 33 33 33 34 35 36 36 35 35 34 34 33 33 33 33 34 35 35 35 35 35 35 36 36 36 36 36 35 35 34 34 34 35 35 34 33 32 31 30 30 29 29 29 29 29 29 30 30 28 26 24 22 22 22 23 25 25 24 22 22 21
32 32 33 33 33 34 34 33 33 33 33 34 34 35 35 35 35 35 34 33 32 32 34 35 35 35 35 36 36 35 35 35 34 34 35 35 35 34 34 34 34 34 34 33 32 30 30 30 30 29 29 28 28 29 30 30 28 26 24 23 22 23 24 26 26 25 23 22 21
33 33 33 33 33 33 33 33 33 33 33 33 34 34 34 35 36 35 35 33 33 34 35 35 35 35 36 36 35 35 34 34 33 33 34 34 34 34 34 33 34 34 34 33 32 31 30 31 31 30 29 29 28 29 30 30 29 27 25 24 23 24 26 28 28 26 25 23 22
33 32 33 33 33 33 33 34 33 33 33 33 34 34 34 35 36 36 35 34 34 35 35 35 35 35 36 36 35 35 34 34 33 33 33 34 34 34 33 33 33 33 33 33 33 33 32 32 32 32 31 30 29 29 30 31 30 28 26 25 25 25 27 30 30 28 26 24 22
33 33 33 33 33 33 33 34 33 33 33 34 34 34 34 35 35 35 35 35 35 35 34 34 34 35 35 36 35 35 35 34 34 34 34 34 34 34 34 33 33 33 33 33 34 34 34 33 33 33 32 31 30 30 30 31 30 29 28 27 26 27 29 31 31 29 26 24 22
34 34 34 33 33 33 33 34 33 33 33 34 35 35 34 34 34 35 35 36 36 35 34 33 33 34 35 35 35 35 35 35 35 34 34 34 34 34 34 34 34 34 34 34 34 35 35 34 34 33 33 32 31 31 31 31 31 30 29 29 28 29 31 33 32 29 26 24 22
35 35 34 34 34 34 34 33 33 33 33 34 35 35 34 33 33 34 35 35 35 35 34 33 34 34 34 35 35 35 35 35 35 35 35 35 35 35 35 35 35 35 35 35 35 35 34 34 33 33 32 32 31 31 31 31 32 31 31 30 30 31 33 34 32 29 26 24 23
36 36 35 35 35 35 35 34 33 33 34 34 35 35 34 34 33 33 34 35 35 34 34 34 34 34 34 35 35 35 35 35 35 35 36 36 36 36 36 36 36 35 35 34 34 33 33 33 33 32 31 30 30 30 31 32 33 33 32 31 31 32 34 34 31 28 26 24 23
36 37 36 36 36 36 36 36 35 35 35 35 35 34 34 33 33 33 34 35 35 35 35 35 34 34 34 35 35 35 35 35 36 36 36 36 36 36 36 36 35 35 34 34 34 33 33 33 32 31 30 29 29 31 32 33 33 33 32 32 32 33 33 32 30 28 26 23 21
37 37 37 37 37 37 37 37 37 37 36 35 34 34 34 34 33 33 33 34 35 36 36 35 35 34 34 35 35 35 36 36 36 37 37 36 36 35 35 35 35 34 34 33 34 34 34 33 32 31 30 29 30 31 32 33 33 33 33 33 33 33 32 31 29 27 24 21 19
37 37 37 37 38 38 38 39 38 38 37 35 34 34 34 34 34 34 34 35 36 37 37 36 36 35 35 35 36 36 36 36 36 36 36 36 35 35 35 35 34 34 34 34 34 34 34 33 32 31 30 30 30 30 31 32 32 32 33 33 32 32 31 30 28 25 21 18 17
37 38 38 38 39 39 39 39 39 38 37 36 35 34 35 35 36 36 36 37 37 37 37 38 37 36 36 36 36 36 36 35 35 35 35 35 35 35 35 34 34 33 34 34 34 34 34 33 32 31 30 30 29 30 30 31 31 31 32 32 31 31 30 29 26 22 19 17 18
38 38 38 38 39 39 39 39 38 37 36 36 35 35 35 36 37 37 38 38 37 37 38 39 38 38 37 37 36 36 36 35 34 34 35 35 35 35 34 34 33 32 32 33 33 33 33 32 31 30 30 29 29 29 30 30 30 30 30 30 30 30 29 27 24 20 18 18 19
39 38 38 39 39 39 39 38 37 36 36 36 36 36 36 36 37 37 38 37 36 37 38 38 39 38 38 37 36 36 35 34 34 34 34 34 34 34 34 33 33 32 33 33 33 33 32 31 30 29 29 29 29 29 30 30 31 31 30 30 30 29 27 25 22 20 19 20 21
39 38 37 37 38 38 38 38 37 37 37 37 37 37 36 37 37 36 36 36 36 36 37 37 37 37 37 36 36 35 35 34 34 34 33 32 32 33 33 33 33 33 33 33 34 34 32 31 30 29 29 29 29 29 30 31 31 32 32 31 30 29 27 24 21 20 20 21 23
37 36 36 35 36 37 37 37 37 38 38 38 38 38 37 36 36 35 35 35 36 36 36 36 36 36 36 35 35 34 34 35 34 33 32 31 31 32 32 32 32 32 33 33 34 34 33 32 31 30 29 29 28 29 30 31 32 33 32 32 31 28 25 23 21 21 22 23 24
34 34 34 34 34 35 36 37 38 39 39 39 39 38 38 37 36 35 35 36 36 36 36 36 36 36 36 35 34 34 34 34 33 32 31 29 29 29 30 30 30 31 32 32 33 33 33 32 31 30 30 30 29 29 30 31 32 32 32 31 29 26 23 21 21 22 23 24 25
31 31 32 32 33 33 35 36 38 39 39 39 39 39 38 37 35 34 35 36 36 37 37 37 37 36 36 35 34 33 33 32 31 29 27 24 24 25 26 27 28 29 30 31 32 32 31 31 31 31 32 31 30 30 31 31 31 30 29 28 26 23 21 20 21 22 24 25 25
27 29 30 30 31 32 33 34 36 37 39 40 41 40 37 34 31 31 33 34 35 36 36 37 37 36 35 34 33 32 32 30 28 25 21 19 18 19 21 23 25 27 29 30 30 30 30 30 31 33 33 33 32 32 32 31 30 29 27 25 23 21 20 21 22 23 24 25 25
24 26 27 28 29 30 30 31 32 35 37 39 40 39 36 32 29 28 29 30 32 33 34 35 35 34 33 32 32 31 30 28 26 22 19 20 20 21 22 24 25 27 29 29 29 28 29 30 32 34 34 34 33 32 32 31 30 28 26 23 22 21 21 22 23 24 24 25 25
22 23 24 25 26 27 27 28 28 30 31 32 32 31 29 28 26 25 24 25 26 28 28 29 29 29 29 29 29 29 28 27 25 22 21 23 26 27 28 28 29 29 29 28 27 27 28 31 33 34 34 34 33 32 31 31 29 27 25 23 22 22 23 24 24 24 24 25 25
25 23 23 23 23 23 23 23 23 23 22 22 21 19 18 19 21 21 22 21 21 21 20 20 21 23 25 26 27 27 26 25 24 22 22 24 27 29 30 30 30 30 29 28 26 26 29 32 34 34 34 33 33 32 31 30 28 26 24 23 23 23 24 24 24 24 24 24 24
34 27 24 22 21 20 19 18 17 16 15 15 13 12 12 14 16 18 19 19 17 16 17 16 16 19 21 23 24 24 23 22 21 21 21 24 27 28 29 30 30 30 29 27 26 27 30 33 34 33 32 32 32 31 30 27 25 23 22 22 23 23 24 24 23 23 23 22 23
39 29 24 23 22 20 17 15 15 14 13 12 10 11 12 12 13 13 14 13 13 14 15 16 15 16 17 19 20 19 19 19 20 21 22 23 26 28 29 29 29 29 28 27 27 28 31 32 32 32 31 30 30 28 27 24 23 21 21 22 22 22 22 22 22 22 22 22 22
36 29 26 25 23 19 17 15 15 14 12 10 11 13 14 11 9 9 10 11 12 14 16 17 18 17 17 18 17 17 17 17 19 20 22 24 25 27 28 28 28 27 27 27 27 29 31 31 31 30 29 28 27 25 23 21 20 20 21 21 21 20 20 20 21 21 22 23 23
33 29 26 25 23 20 17 15 14 12 11 10 10 11 11 10 9 9 10 10 11 14 18 20 21 20 19 18 17 17 18 19 20 21 23 24 25 27 27 27 27 26 26 27 28 29 30 30 29 28 27 25 24 22 20 19 19 20 20 20 19 19 19 20 22 23 24 24 24
31 29 26 24 22 20 17 15 14 12 10 9 8 8 8 9 10 10 9 9 13 18 22 24 23 20 18 17 16 18 20 21 22 23 24 25 26 26 27 27 27 26 26 27 28 28 28 28 27 26 24 22 20 19 19 19 20 20 20 19 19 20 21 22 24 24 24 24 22
28 28 26 24 22 19 18 16 15 14 13 11 9 9 10 11 11 10 11 16 21 24 25 24 21 18 17 17 18 19 20 22 25 26 26 26 27 27 27 27 27 26 26 26 26 26 25 25 24 22 21 19 18 18 19 19 20 20 20 20 20 21 22 23 23 23 21 20 19
26 26 26 24 22 19 18 18 18 18 17 15 13 13 13 13 13 15 21 23 24 24 24 21 18 17 17 19 19 20 21 23 25 26 26 26 27 28 28 27 27 26 25 24 23 22 21 20 19 18 18 17 18 18 19 20 20 20 20 21 21 22 22 22 21 20 18 17 17
23 23 24 23 22 20 19 20 21 21 20 18 16 15 14 13 15 18 22 23 24 24 23 20 18 17 18 20 20 21 22 23 25 25 26 26 27 27 27 27 26 25 23 21 19 18 17 17 17 17 17 18 18 19 19 20 20 21 21 21 21 20 20 19 18 17 17 17 18
21 21 21 21 21 20 20 20 20 18 16 14 13 13 14 14 17 19 21 22 22 22 22 20 18 18 18 20 20 21 21 23 23 24 24 25 25 25 26 26 25 23 20 19 17 17 17 17 18 18 19 19 19 19 19 19 20 20 19 20 19 18 17 16 15 15 15 16 15
20 20 20 19 20 20 19 17 15 12 9 7 8 10 13 15 19 21 21 20 19 19 19 18 18 17 18 18 19 20 21 22 22 22 22 22 22 22 22 23 22 20 19 18 18 19 19 20 20 20 20 19 18 18 18 18 18 18 18 18 17 16 15 14 13 13 12 11 10
Wind_Direction
189 189 189 189 190 191 191 193 193 193 193 193 193 194 195 196 197 198 199 199 200 201 202 203 204 204 205 206 207 207 207 207 208 209 210 211 212 213 213 213 213 213 213 213 213 213 213 214 214 215 217 218 219 220 221 222 222 222 223 224 226 227 227 226 226 227 227 228 230
192 192 192 191 192 193 194 195 195 195 196 196 196 197 197 198 199 200 201 202 203 203 204 204 206 206 207 208 209 210 209 209 210 211 212 214 215 216 217 217 216 216 215 215 214 214 214 215 215 216 217 219 220 221 222 223 223 223 223 224 226 227 227 226 227 228 229 229 230
194 194 194 194 194 194 195 196 197 198 198 199 199 199 199 200 201 203 204 205 205 205 205 206 207 208 209 210 211 212 212 212 213 214 215 216 218 219 219 219 218 218 217 216 216 216 216 217 217 217 218 219 221 221 222 223 223 223 223 225 226 227 226 225 225 225 226 227 228
196 197 197 197 196 197 197 198 199 199 199 200 201 201 202 203 204 205 206 207 207 207 207 207 208 210 211 212 213 214 214 215 216 217 218 219 220 220 221 220 219 218 218 217 217 218 218 218 218 218 219 221 222 223 224 224 223 223 224 225 226 226 226 226 225 223 223 224 226
199 199 199 200 200 199 200 200 201 201 201 201 201 202 204 205 206 207 207 208 208 209 209 209 210 211 212 213 215 216 216 217 218 219 219 220 221 221 221 221 220 219 218 218 219 219 219 219 218 218 219 221 223 224 226 226 225 223 224 225 226 227 227 227 226 225 224 224 225
200 201 202 202 202 202 202 202 203 202 202 202 203 204 205 206 207 208 208 209 211 211 211 210 211 212 213 214 216 217 217 218 218 219 219 220 220 220 220 220 220 219 219 219 219 220 219 218 217 217 218 220 222 225 227 227 226 224 224 225 226 227 228 229 229 229 228 226 226
202 203 203 204 204 204 204 204 205 204 204 204 204 205 206 207 208 209 210 211 212 212 211 211 211 212 213 215 216 217 217 218 218 219 219 219 219 219 219 220 219 219 219 220 220 219 219 218 217 217 219 220 222 225 226 227 225 224 224 225 227 228 228 230 232 233 231 229 228
205 205 205 206 206 206 206 206 206 206 205 206 207 208 209 209 209 210 211 211 212 212 212 211 212 213 214 215 216 217 217 217 217 218 218 218 218 219 219 219 219 219 219 220 219 218 217 217 218 219 220 221 223 225 226 225 223 223 223 225 227 229 230 231 234 235 233 231 229
206 207 207 207 208 208 208 208 208 208 208 208 210 211 211 211 211 211 211 211 212 213 213 212 213 214 215 216 217 217 217 217 217 217 217 217 217 218 218 218 218 218 218 219 219 218 217 217 219 220 222 224 226 228 228 226 223 222 223 225 228 230 231 232 234 234 233 231 229
208 208 208 209 209 210 210 210 210 211 211 212 212 213 213 212 212 212 213 213 213 214 214 214 214 214 215 216 217 218 218 217 217 217 217 217 217 217 217 218 217 217 216 217 219 220 219 219 219 221 224 228 232 233 230 226 222 220 222 226 229 231 233 235 235 234 232 231 231
209 209 209 210 211 211 211 211 212 213 214 214 215 215 214 214 214 214 214 214 214 214 215 216 215 214 215 216 217 218 218 217 217 217 216 216 216 217 217 218 217 216 215 215 217 219 221 220 220 221 225 232 237 236 231 225 220 219 222 226 229 233 235 237 237 235 233 232 231
211 211 211 211 212 212 212 212 213 214 215 216 216 216 216 216 216 216 215 215 215 216 217 217 216 215 216 216 217 218 218 217 216 216 216 216 216 216 217 217 217 216 215 214 215 218 220 219 219 220 223 230 236 234 228 222 219 219 222 226 230 233 235 237 237 235 233 231 230
211 211 212 212 213 213 213 213 214 216 217 217 217 218 218 218 218 217 216 216 216 217 218 218 217 217 217 216 217 217 217 217 216 216 216 216 216 216 216 216 216 216 215 214 215 216 217 218 218 219 221 224 229 228 224 220 219 219 222 225 229 232 233 235 235 234 232 230 228
212 212 213 213 213 213 213 214 215 217 218 218 219 219 219 219 219 218 217 217 217 218 218 218 218 218 218 217 217 216 216 216 216 216 216 216 216 215 215 215 216 216 215 215 215 215 216 217 218 219 220 221 224 224 223 220 220 220 222 224 228 230 231 232 232 231 229 227 226
213 214 214 214 214 214 214 215 216 218 219 219 220 220 220 220 220 219 218 218 218 219 218 218 218 218 218 218 217 217 216 216 215 215 216 216 216 215 215 215 215 215 215 214 214 215 216 217 218 219 219 220 222 223 223 222 222 222 223 226 228 229 229 229 229 229 227 224 225
214 215 215 215 214 215 215 215 216 218 220 220 221 220 220 220 220 219 218 218 218 218 218 218 218 218 218 218 217 217 216 215 215 214 215 215 215 215 215 215 215 215 214 213 214 215 216 217 218 219 219 220 222 223 224 224 223 224 226 228 229 228 226 226 226 225 224 223 226
215 216 216 216 216 216 216 216 217 219 220 220 220 220 220 219 219 219 218 218 218 218 218 219 218 218 217 216 216 215 215 215 215 215 215 215 215 215 215 215 214 214 213 212 212 213 214 216 217 219 220 221 222 225 226 226 225 224 225 227 227 225 223 222 222 222 222 224 228
216 217 217 217 217 217 217 217 218 219 220 220 220 220 219 218 218 218 218 218 218 217 217 218 218 217 216 216 215 214 214 214 215 216 216 216 216 216 215 215 214 213 212 211 211 212 213 214 216 217 219 222 224 227 228 227 225 224 224 225 223 221 220 219 220 221 222 225 232
217 217 218 218 218 219 219 219 219 220 220 221 220 220 219 218 218 218 218 218 217 217 217 217 216 216 216 216 215 214 214 215 216 216 216 216 216 216 216 215 214 213 212 211 211 211 212 213 215 217 220 222 225 226 227 226 225 224 224 222 220 218 217 217 219 220 223 229 238
217 218 218 219 219 220 220 221 221 221 221 221 220 220 219 219 218 217 217 217 217 217 217 216 216 215 215 216 216 215 215 216 216 216 216 216 216 216 215 215 213 212 212 211 211 211 211 212 216 219 220 222 223 223 223 223 223 223 222 220 218 216 216 217 218 221 227 236 245
218 219 219 220 220 221 222 222 222 222 222 221 221 220 220 219 219 218 218 219 219 218 216 216 216 217 216 216 216 216 216 216 216 216 216 215 215 215 215 214 212 211 211 211 211 211 211 212 215 218 220 221 222 221 221 221 221 221 220 218 216 215 215 216 218 224 233 243 248
219 219 220 220 221 222 223 223 223 222 222 222 221 221 220 220 219 219 219 220 219 218 217 217 217 218 218 217 217 217 217 216 216 216 215 215 215 214 214 212 211 210 210 210 211 211 211 213 215 217 220 222 222 221 221 220 220 219 217 216 214 214 215 217 221 229 239 247 250
220 220 221 221 222 223 223 224 223 223 222 222 222 222 221 221 221 220 220 220 218 217 217 217 218 218 218 218 217 217 216 215 215 216 215 215 214 214 213 211 209 209 208 209 209 210 210 212 214 218 221 222 222 221 219 218 217 216 215 214 213 214 215 219 225 235 244 248 250
220 221 221 222 223 223 224 224 224 223 223 222 222 221 221 221 221 221 220 219 218 217 217 217 218 218 218 218 217 216 215 214 214 214 214 215 215 213 212 210 209 208 207 207 207 208 209 211 213 217 220 222 221 219 217 216 215 215 213 213 212 213 216 221 229 238 245 247 249
220 221 222 223 223 224 224 224 224 224 224 223 222 221 221 220 220 220 219 218 218 217 216 217 217 217 217 216 216 215 215 214 213 213 214 215 216 214 212 210 208 206 206 205 206 207 209 212 213 216 220 221 218 215 214 214 214 214 213 213 213 214 217 223 232 240 244 247 249
222 223 224 224 225 225 225 225 225 225 225 224 223 221 220 219 219 218 218 218 217 216 215 215 215 215 215 214 214 213 213 214 213 213 213 215 216 215 212 209 207 205 205 205 205 206 208 211 215 219 221 219 215 212 211 212 214 214 214 213 214 215 220 227 235 241 245 247 250
225 226 227 227 228 228 227 227 227 226 226 225 223 221 220 219 219 219 218 217 214 213 213 213 213 213 213 213 212 212 212 212 212 212 214 217 216 214 212 209 207 206 206 206 206 207 208 212 217 221 221 217 212 210 209 210 212 212 212 213 215 219 225 233 240 244 246 249 252
228 229 230 231 231 231 230 229 228 227 226 225 223 221 219 218 221 222 220 216 212 210 210 210 211 211 210 209 209 209 209 208 206 207 210 211 212 212 213 212 210 209 208 207 207 207 210 214 218 220 218 214 211 209 209 209 210 210 211 213 217 223 232 240 245 247 249 251 256
233 233 234 234 234 234 233 232 230 228 227 225 221 218 216 217 222 225 224 218 212 208 207 207 207 206 205 205 205 205 204 201 200 204 209 206 206 211 215 216 215 213 210 208 206 207 211 214 216 216 215 213 211 209 209 209 209 209 211 215 221 230 238 244 247 249 250 254 261
243 239 237 236 236 236 235 233 230 228 225 221 217 215 215 217 222 227 227 219 211 207 205 204 202 200 199 200 201 200 198 198 198 201 205 206 207 208 212 216 216 213 210 207 208 210 213 215 214 214 213 213 212 210 209 209 209 210 213 219 228 236 243 247 247 248 251 257 264
252 244 238 235 233 232 232 230 227 223 219 214 212 216 223 227 230 230 229 225 219 213 209 208 203 199 196 196 196 196 197 198 201 206 210 211 211 212 213 213 212 210 207 208 214 219 219 215 213 213 213 214 213 212 210 209 210 213 219 227 235 242 246 247 246 248 253 260 265
250 242 233 227 224 224 223 219 214 211 208 208 208 223 242 248 244 240 235 231 224 218 213 210 206 201 196 194 194 197 199 200 201 205 210 212 212 212 211 210 210 208 207 210 219 223 220 215 213 212 213 213 213 212 211 211 213 219 227 235 242 246 247 246 247 251 256 261 265
238 232 222 216 215 215 213 204 197 194 197 204 218 240 254 258 252 241 229 217 205 199 198 200 204 205 202 199 200 202 202 201 198 199 202 206 207 207 207 206 207 207 208 213 219 219 215 213 212 212 212 212 211 210 211 213 218 226 234 241 245 247 247 247 250 254 259 262 264
223 218 211 209 208 203 196 190 186 188 196 214 236 250 255 252 240 219 202 196 194 195 197 200 209 216 220 219 214 208 202 198 196 197 199 201 201 202 202 204 205 207 210 212 214 213 211 211 211 211 210 209 209 210 212 217 225 232 238 242 244 245 246 249 252 256 259 261 262
212 207 202 200 196 189 184 182 184 190 203 221 238 244 240 229 211 195 189 192 200 204 207 209 215 221 224 222 216 208 200 196 196 197 198 197 198 199 201 204 206 208 209 210 209 208 208 208 209 208 208 207 208 211 216 223 230 235 238 240 241 243 246 251 254 257 259 259 259
206 200 193 187 184 183 182 182 183 186 192 202 211 210 201 192 183 181 188 206 219 220 217 215 216 218 217 210 202 196 193 193 193 193 194 195 197 199 203 206 208 208 207 205 204 204 205 205 205 206 206 207 210 216 222 229 233 235 236 238 241 245 249 253 256 257 258 258 257
195 193 188 184 182 183 183 180 175 170 167 169 174 176 177 178 181 193 215 227 227 220 212 209 208 207 202 193 185 183 186 190 189 188 190 195 199 203 206 207 206 203 199 198 198 200 201 202 203 205 207 211 217 223 228 231 233 233 235 238 243 248 252 254 255 256 256 256 257
183 186 187 187 186 182 177 172 167 161 156 157 164 172 177 184 199 225 233 224 212 202 197 196 196 193 188 182 177 176 180 185 186 187 191 198 204 207 206 203 197 193 190 190 193 196 199 202 205 209 214 219 225 228 230 231 232 233 237 241 245 248 250 252 252 253 254 257 260
170 175 178 179 177 174 171 169 165 159 156 157 166 177 187 198 212 221 218 206 197 191 188 187 184 180 177 174 172 173 177 182 187 192 197 202 205 205 201 194 187 183 183 186 190 195 200 204 209 214 219 223 226 229 230 232 234 237 240 242 244 245 245 247 249 252 255 259 263
154 160 164 165 166 166 165 164 161 159 158 163 176 191 204 213 211 202 192 187 187 186 183 177 172 170 170 172 173 175 179 185 191 197 200 200 199 196 192 186 182 181 183 188 193 199 205 209 213 216 219 223 226 229 232 235 237 239 239 239 238 237 238 242 247 252 257 260 262
143 149 153 154 157 159 159 158 158 159 165 183 203 218 223 217 203 190 180 178 179 179 176 171 167 167 171 177 182 185 186 188 191 194 194 191 188 186 186 186 186 188 191 197 202 207 211 214 216 218 221 223 226 229 232 234 234 233 231 230 230 231 233 238 245 250 252 254 256